This is the latest recevied weather packets stored in our database for station/object SP2WPY-13. If no packets are shown the sender has not sent any weather packets the latest 10 day(s).
| Time | Temp. | Humidity | Pressure | Rain* | Wind** | Luminosity | Snow |
|---|---|---|---|---|---|---|---|
| 1777118306 | 10° C | 70% | 1007.9 hPa | - | - | - | - |
| 1777117987 | 10.56° C | 68% | 1007.9 hPa | - | - | - | - |
| 1777117712 | 10.56° C | 67% | 1007.6 hPa | - | - | - | - |
| 1777117393 | 11.11° C | 68% | 1007.8 hPa | - | - | - | - |
| 1777117119 | 10.56° C | 70% | 1007.8 hPa | - | - | - | - |
| 1777116799 | 10.56° C | 70% | 1007.9 hPa | - | - | - | - |
| 1777116526 | 10.56° C | 68% | 1007.8 hPa | - | - | - | - |
| 1777116205 | 10.56° C | 69% | 1007.9 hPa | - | - | - | - |
| 1777115886 | 10° C | 70% | 1007.9 hPa | - | - | - | - |
| 1777115612 | 10.56° C | 68% | 1007.6 hPa | - | - | - | - |
| 1777115292 | 11.11° C | 68% | 1007.8 hPa | - | - | - | - |
| 1777115018 | 10.56° C | 69% | 1007.8 hPa | - | - | - | - |
| 1777114699 | 10.56° C | 69% | 1007.6 hPa | - | - | - | - |
| 1777114424 | 10.56° C | 69% | 1007.6 hPa | - | - | - | - |
| 1777114105 | 10° C | 73% | 1007.7 hPa | - | - | - | - |
| 1777113785 | 10.56° C | 72% | 1007.7 hPa | - | - | - | - |
| 1777113511 | 11.11° C | 70% | 1007.7 hPa | - | - | - | - |
| 1777113191 | 10.56° C | 72% | 1007.6 hPa | - | - | - | - |
| 1777112917 | 10.56° C | 72% | 1007.7 hPa | - | - | - | - |
| 1777112598 | 10° C | 73% | 1007.7 hPa | - | - | - | - |
| 1777112323 | 10.56° C | 71% | 1007.7 hPa | - | - | - | - |
| 1777112004 | 10.56° C | 71% | 1007.5 hPa | - | - | - | - |
| 1777111684 | 10.56° C | 73% | 1007.7 hPa | - | - | - | - |
| 1777111410 | 10.56° C | 72% | 1007.4 hPa | - | - | - | - |
| 1777111091 | 10.56° C | 73% | 1007.5 hPa | - | - | - | - |
* Rain since midnight (hover to see other rain measurements)
** Current wind speed in m/s (hover to see current wind gust speed)